Tracking 29892 objects as of 21-Nov-2024
HD Live streaming from Space Station
objects crossing your sky now

CZ-4C R/B

Track CZ-4C R/B now!
10-day predictions


NORAD ID: 57655
Int'l Code: 2023-123B
Perigee: 452.8 km
Apogee: 562.3 km
Inclination: 97.9 °
Period: 94.6 minutes
Semi major axis: 6878 km
RCS: Unknown
Launch date: August 20, 2023
Source: People's Republic of China (PRC)
Launch site: Jiuquan Satellite Launch Center, China (JSC)

Note: This is a ROCKET BODY
Your satellite tracking list
Your tracking list is empty




NASA's NSSDC Master Catalog

Two Line Element Set (TLE):
1 57655U 23123B   24325.79625258  .00017536  00000-0  71022-3 0  9996
2 57655  97.9101 264.8509 0079608 286.0294  73.2184 15.21810474 69353
Source of the keplerian elements: AFSPC